SCP
-0 -0 -0 -0 -0 -0 -0 -0 -0 -0 0 0 -0 -0 -0 -0 0 0 0 0 0 -0 -0 0 0 0 0 0 0 0 0 0 0 0 0 0 0 0 0 0 0 0 0 0 0
-0 -0 0 0 -0 0 -0 -0 -0 -0 -0 0 0 -0 0 0 0 0 0 -0 -0 -0 0 0 0 0 0 0 0 0 0 0 0 0 0 0 0 0 0 0 0 0 0 0 0
-0 -0 -0 -0 -0 -0 -0 -0 -0 -0 -0 -0 -0 0 -0 0 0 0 -0 -0 -0 -0 0 -0 -0 0 0 0 0 0 0 0 0 0 0 0 0 0 0 0 0 0 0 0 0
-0 -0 -0 -0 -0 -0 -0 -0 -0 -0 -0 0 0 0 0 0 0 0 -0 -0 -0 0 0 0 -0 0 0 0 0 0 0 0 0 0 0 0 0 0 0 0 0 0 0 0 0
-0 -0 -0 -0 -0 -0 -0 -0 -0 -0 -0 0 0 0 0 0 0 0 -0 0 0 0 0 0 0 -0 0 0 0 0 0 -0 -0 0 0 0 0 0 0 0 0 0 0 0 0
-0 -0 -0 -0 -0 -0 -0 -0 -0 -0 0 -0 0 0 0 0 0 0 0 0 0 0 0 0 -0 0 -0 0 0 0 0 -0 -0 -0 0 0 0 0 0 0 0 0 0 0 0
0 0 -0 0 0 -0 -0 -0 -0 -0 -0 -0 0 0 0 0 0 0 0 0 0 0 0 0 0 0 0 -0 -0 -0 -0 -0 -0 0 0 0 0 0 0 0 0 0 0 0 0
-0 -0 -0 0 0 -0 -0 -0 -0 -0 -0 0 0 0 -0 0 0 0 0 0 0 0 0 0 0 0 0 0 -0 0 0 0 0 0 0 0 0 0 0 0 0 0 0 0 0
-0 -0 -0 -0 -0 -0 -0 0 -0 -0 -0 -0 0 0 0 0 0 0 0 0 0 0 0 0 0 0 -0 -0 0 0 0 0 0 -0 0 0 0 0 0 0 0 0 0 0 0
-0 -0 -0 -0 -0 -0 0 0 0 -0 -0 0 0 0 0 0 0 0 0 0 -0 0 0 -0 -0 0 0 0 -0 -0 -0 0 0 0 -0 0 0 0 0 0 0 0 0 0 0
-0 -0 -0 -0 -0 -0 -0 -0 -0 0 0 0 0 0 0 0 0 0 0 0 0 0 0 -0 -0 -0 -0 -0 -0 -0 -0 -0 0 -0 -0 0 0 0 0 0 0 0 0 0 0
0 -0 -0 -0 -0 0 0 0 -0 -0 0 -0 0 0 0 0 0 0 0 0 0 0 -0 0 -0 -0 -0 -0 -0 -0 -0 -0 0 -0 -0 -0 -0 0 0 0 0 0 0 0 0
0 0 -0 0 0 0 0 0 -0 0 0 0 0 0 0 0 0 0 0 0 0 0 -0 0 0 -0 -0 -0 -0 -0 -0 0 0 -0 -0 0 -0 -0 -0 0 0 0 0 -0 -0
0 0 0 0 0 0 0 0 -0 0 0 0 0 0 0 0 0 0 0 0 0 0 0 0 -0 -0 0 0 -0 -0 -0 -0 -0 -0 -0 -0 -0 -0 -0 -0 0 0 0 -0 -0
0 0 0 0 0 0 0 0 0 0 0 0 0 0 0 0 0 0 0 0 0 0 0 -0 0 0 -0 -0 -0 -0 -0 -0 -0 0 0 0 0 -0 0 -0 -0 0 0 0 -0
0 0 0 0 0 0 0 0 0 0 0 0 0 0 0 0 0 0 0 0 0 0 0 0 0 0 -0 -0 -0 -0 -0 0 0 0 0 -0 0 -0 0 0 0 0 0 0 0
0 0 0 0 0 0 0 0 0 0 0 0 0 0 0 0 0 0 0 0 0 0 0 0 0 0 0 0 0 0 0 0 0 0 -0 0 0 -0 0 0 0 0 0 0 0
0 0 0 0 0 0 0 0 0 0 0 0 0 0 0 0 0 0 0 0 0 0 0 0 0 0 0 0 0 0 0 0 0 0 0 0 0 0 0 0 0 0 0 0 0
0 0 0 0 0 0 0 0 0 0 0 0 0 0 0 0 0 0 0 0 0 0 0 0 0 0 0 0 0 0 0 0 0 0 0 0 0 0 0 0 0 0 0 0 0
0 0 0 0 0 0 0 0 0 0 0 0 0 0 0 0 0 0 0 0 0 0 0 0 0 0 0 0 0 0 0 0 0 0 0 0 0 0 0 -0 0 0 0 0 0
0 0 0 0 0 0 0 0 0 0 0 0 0 0 0 0 0 0 0 0 0 0 0 0 0 0 0 0 0 0 0 0 0 0 0 0 0 0 0 0 0 0 0 0 0
0 0 0 0 0 0 0 0 0 0 0 0 0 0 0 0 0 0 0 0 0 0 0 0 0 0 0 0 0 0 0 0 0 0 0 0 0 0 0 0 0 0 0 0 0
0 0 0 0 0 0 0 0 0 0 0 0 0 0 0 0 0 0 0 0 0 0 0 0 0 0 0 0 0 0 0 0 0 0 0 0 0 0 0 0 0 0 0 0 0
0 0 0 0 0 0 0 0 0 0 0 0 0 0 0 0 0 0 0 0 0 0 0 0 0 0 0 0 0 0 0 0 0 0 0 0 0 0 0 0 0 0 0 0 0
0 0 0 0 0 0 0 0 0 0 0 0 0 0 0 0 0 0 0 0 0 0 0 0 0 0 0 0 0 0 0 0 0 0 0 0 0 0 0 0 0 0 0 0 0
0 0 0 0 0 0 0 0 0 0 0 0 0 0 0 0 0 0 0 0 0 0 0 0 0 0 0 0 0 0 0 0 0 0 0 0 0 0 0 0 0 0 0 0 0
0 0 0 0 0 0 0 0 0 0 0 0 0 0 0 0 0 0 0 0 0 0 0 0 0 0 0 0 0 0 0 0 0 0 0 0 0 0 0 0 0 0 0 0 0
Wind_Speed_500mb
32 35 37 39 40 37 36 31 24 20 19 22 28 14 14 36 46 45 61 49 48 35 26 24 24 18 17 21 20 11 7 13 14 19 12 12 25 45 46 73 85 49 44 34 46
26 29 31 35 40 42 35 31 27 22 17 20 38 26 11 10 48 65 52 42 40 30 25 21 39 37 27 20 16 15 8 13 21 33 33 51 35 31 37 55 54 59 58 66 72
22 24 25 28 29 37 39 42 45 39 24 14 32 38 9 5 28 60 56 50 46 32 28 23 14 37 40 34 18 14 14 43 54 66 68 59 77 33 11 34 45 42 42 60 77
15 17 19 22 25 22 28 35 44 51 52 30 16 45 41 6 11 46 52 51 42 27 24 42 37 23 15 29 34 31 52 39 42 35 35 46 44 67 62 34 32 35 40 53 76
12 14 14 15 18 19 16 21 29 34 46 54 27 5 24 57 34 37 39 47 32 29 13 39 51 44 22 36 68 39 43 46 74 67 63 68 62 41 54 38 37 39 53 68 71
13 14 12 11 13 19 16 15 18 24 37 33 57 36 36 52 41 35 33 38 34 33 50 51 44 45 33 17 29 46 59 49 57 63 48 66 39 15 32 31 40 46 53 67 73
13 13 12 9 10 19 28 29 23 24 33 32 48 40 85 46 38 27 25 34 36 36 35 27 15 26 46 50 60 58 42 44 40 10 11 4 38 25 24 25 35 46 58 67 69
13 13 14 9 11 15 15 7 31 40 40 21 21 48 36 49 40 14 22 18 32 29 47 49 50 57 32 54 9 8 10 8 28 21 16 9 11 14 16 26 35 43 55 62 64
12 12 16 17 20 33 38 24 13 3 22 37 30 17 17 51 65 49 38 26 34 38 39 44 57 36 15 7 8 17 7 12 7 49 11 11 13 12 14 23 31 36 46 50 55
11 12 17 36 27 22 29 42 53 8 9 17 38 17 39 46 62 45 34 21 15 23 34 38 32 14 13 15 3 5 11 15 14 17 40 35 28 18 19 22 26 31 40 44 48
7 8 17 23 13 8 12 6 5 26 73 41 34 26 40 22 49 57 36 35 33 43 15 38 28 13 13 9 6 14 19 16 5 5 16 15 18 10 17 23 27 31 36 40 43
6 7 8 17 21 12 5 8 14 25 39 37 44 30 30 36 27 46 58 36 38 12 6 15 21 12 9 10 16 14 20 9 4 9 12 8 8 4 8 12 18 21 27 33 38
6 7 6 8 9 14 25 24 21 16 15 19 31 30 27 24 29 52 31 14 26 28 29 18 4 12 7 14 13 12 9 5 9 9 12 9 3 6 2 8 10 15 18 23 32
6 10 10 12 11 22 25 8 6 6 10 22 19 20 35 7 17 40 34 11 15 7 7 17 14 8 11 12 8 6 5 2 13 5 7 5 5 7 9 8 5 5 10 15 28
6 10 10 6 13 24 13 8 2 4 8 10 11 10 26 21 7 31 26 43 12 9 6 3 12 13 15 8 7 5 2 5 5 8 7 9 3 5 6 9 10 11 4 7 24
3 8 10 13 12 10 17 8 5 13 7 6 9 16 8 24 13 18 14 18 10 12 26 8 5 8 5 5 8 6 6 10 7 5 6 7 6 5 9 11 8 23 17 8 10
6 5 9 10 10 17 15 7 11 11 10 7 6 9 8 13 12 22 11 15 8 10 11 6 7 8 13 5 7 8 9 6 9 8 6 4 4 13 9 12 17 34 24 12 11
13 5 7 8 14 17 16 10 11 5 11 1 4 4 9 8 7 12 5 7 11 8 8 7 8 12 22 6 1 8 8 8 7 1 8 8 8 6 4 12 19 23 17 17 16
17 13 9 8 13 15 8 9 16 15 13 17 5 6 3 1 5 7 8 6 1 7 10 9 3 5 7 10 1 6 8 6 15 2 6 4 11 7 5 11 21 24 21 19 14
20 19 19 13 13 15 9 10 6 8 16 6 9 5 9 5 4 7 2 4 7 5 1 7 7 2 6 1 21 5 12 6 7 4 7 8 10 8 10 17 22 29 30 25 18
21 12 14 19 17 9 8 12 8 13 10 8 9 10 5 10 6 6 9 1 7 5 9 8 5 5 4 7 3 4 4 12 9 5 9 2 11 12 14 16 16 38 35 32 30
20 4 16 27 9 7 9 14 13 12 9 5 8 7 11 10 7 7 10 7 12 12 7 2 9 4 2 4 4 3 8 6 8 8 2 5 13 9 21 17 19 26 28 30 33
13 15 18 32 8 1 1 5 9 12 12 10 6 5 4 11 6 4 4 5 16 6 11 14 2 5 13 7 6 5 7 8 8 6 11 10 11 7 16 13 21 26 25 34 45
17 1 12 26 11 19 13 6 9 10 12 10 11 11 8 6 7 11 6 7 12 8 14 8 5 12 12 10 7 6 7 7 11 7 8 14 14 16 14 16 30 35 46 47 39
28 14 19 7 10 15 14 13 14 15 9 19 3 10 16 9 5 7 5 7 5 18 7 8 8 4 5 7 3 8 9 18 18 12 14 5 16 27 10 20 41 50 50 41 35
24 16 16 9 22 20 6 17 25 12 21 13 11 22 14 16 16 21 17 11 11 11 7 4 4 4 7 6 5 14 22 28 28 21 29 24 38 65 73 53 45 41 35 35 38
49 29 17 17 15 11 12 17 23 36 19 8 29 16 12 12 15 16 15 27 32 17 7 9 11 5 10 8 11 15 19 34 16 13 24 18 29 11 18 31 38 39 39 46 54
Wind_Direction_500mb
66 72 72 69 61 58 62 66 68 64 53 43 21 15 82 54 43 49 36 10 356 356 8 26 18 59 130 75 71 69 87 128 130 127 113 65 79 63 67 65 61 67 59 45 45
69 74 71 72 69 61 63 57 54 51 44 47 29 37 136 59 46 44 27 21 15 13 15 36 52 73 72 45 46 38 82 57 94 111 94 65 69 84 62 54 52 52 55 57 56
73 71 69 74 75 68 66 59 54 46 36 41 45 40 75 141 28 14 20 17 15 24 44 38 83 67 55 58 26 19 90 100 92 107 98 83 56 58 49 49 38 37 37 48 55
67 69 65 69 69 75 68 63 49 50 46 44 74 62 53 113 62 10 19 17 16 17 62 69 89 73 69 60 63 90 68 63 80 84 85 73 83 63 60 61 49 47 52 55 55
61 67 54 57 63 73 83 52 55 55 48 48 53 43 35 67 25 14 13 16 27 41 85 85 71 68 80 86 72 68 89 76 84 79 81 82 72 69 54 54 62 53 53 58 59
70 61 50 50 69 80 50 24 72 58 43 55 57 66 74 63 17 9 7 21 45 61 83 89 82 91 65 71 59 106 83 70 76 85 78 74 51 73 43 54 55 59 58 56 54
83 64 38 46 88 95 68 74 61 70 53 65 56 51 52 37 16 10 9 28 47 61 75 71 117 109 96 97 119 114 100 79 25 46 142 85 40 47 54 55 59 57 61 64 60
94 83 36 58 114 116 72 99 73 74 48 43 61 50 67 32 29 57 53 56 59 71 83 82 95 88 79 125 88 44 61 72 23 24 42 75 84 42 69 71 58 58 61 62 58
98 110 56 86 104 95 63 51 229 327 62 55 70 70 42 24 33 34 40 88 79 77 92 94 92 61 67 46 48 17 73 27 41 13 114 104 124 126 68 71 66 60 62 59 57
99 133 124 119 105 62 57 69 59 111 90 48 52 67 21 11 24 33 47 81 93 87 83 70 58 62 29 33 91 53 97 52 54 7 77 94 114 107 90 84 76 70 66 61 55
128 136 179 198 233 328 355 347 357 55 66 68 64 76 31 33 36 39 58 78 79 69 49 32 60 31 319 335 79 97 89 93 49 306 60 73 100 95 94 87 81 76 70 63 54
131 132 182 210 232 254 2 82 111 122 79 64 60 52 35 31 40 39 58 64 51 50 18 53 53 331 303 25 74 70 90 71 106 38 86 122 93 106 90 74 80 76 64 59 53
143 141 116 139 174 163 127 109 105 109 77 37 38 32 20 32 39 13 29 64 64 57 55 82 297 349 66 40 57 33 85 127 123 103 66 131 151 190 176 128 92 79 69 59 44
116 164 121 110 136 157 159 139 90 131 78 338 2 23 9 41 49 23 27 53 49 103 90 75 2 33 51 70 355 72 353 132 116 86 143 16 261 250 194 199 183 114 79 58 38
114 133 167 175 147 149 176 185 115 110 52 327 3 12 30 76 347 19 39 69 76 21 116 58 7 23 47 7 333 90 133 95 90 87 90 345 65 261 140 231 223 210 149 64 33
127 145 126 138 165 172 167 164 110 43 260 5 343 353 40 32 26 359 41 62 78 61 56 99 46 48 331 313 10 124 94 49 55 77 36 256 121 248 192 204 185 206 204 197 20
186 152 184 167 164 154 163 152 37 113 344 280 20 17 81 13 20 25 40 17 44 76 22 26 24 353 25 6 46 60 59 358 6 15 208 344 51 245 229 216 197 192 204 216 284
214 195 155 162 159 160 154 57 82 239 212 169 123 69 80 356 32 10 77 46 37 30 81 101 356 12 348 59 146 48 130 140 195 285 270 333 242 250 247 195 184 198 208 234 284
221 212 207 182 174 172 151 64 198 194 152 150 90 102 23 107 122 70 38 139 12 26 117 109 82 342 57 37 36 266 52 155 104 70 38 270 283 277 168 208 207 214 229 248 286
227 219 219 203 188 176 85 215 152 151 130 157 155 146 169 220 137 61 186 212 137 50 36 224 80 32 289 191 35 90 141 64 12 60 313 292 282 242 214 226 227 234 239 249 276
218 205 207 198 185 179 159 204 165 177 154 150 159 129 160 157 126 170 171 269 189 114 101 136 80 265 9 24 163 19 29 50 107 104 160 269 272 209 209 211 217 234 242 255 258
205 223 209 182 147 46 146 167 141 159 169 131 111 109 150 160 137 158 184 182 166 152 128 164 138 126 155 171 256 185 188 137 113 258 80 127 272 217 214 218 228 234 236 264 271
202 198 207 189 150 231 93 90 148 144 179 165 129 131 134 154 90 183 161 128 152 139 167 184 6 28 345 5 358 207 182 115 101 78 205 144 264 241 251 238 225 241 253 289 297
185 114 173 199 208 144 146 193 151 181 159 154 127 112 104 102 42 173 148 169 166 130 130 138 105 161 192 202 130 178 196 169 129 128 185 230 285 255 236 230 247 252 278 293 298
200 224 181 207 223 157 149 132 139 175 199 175 106 206 160 122 78 179 203 127 147 162 111 132 179 126 265 260 301 230 184 188 203 181 179 246 223 258 234 227 268 279 287 288 293
189 184 185 148 147 126 178 212 166 171 153 221 209 176 167 154 182 189 142 190 183 162 139 90 215 96 316 350 306 278 223 220 219 229 255 255 276 270 274 277 280 281 276 282 290
210 215 198 157 150 122 207 182 193 145 200 179 174 126 164 191 136 132 147 147 147 139 134 120 133 95 268 343 330 295 231 198 187 211 206 199 233 250 270 266 280 288 282 285 291
Wind_Speed_850mb
32 35 37 39 40 37 36 31 24 20 19 22 28 14 14 36 46 45 61 49 48 35 26 24 24 18 17 21 20 11 7 13 14 19 12 12 25 45 46 73 85 49 44 34 46
26 29 31 35 40 42 35 31 27 22 17 20 38 26 11 10 48 65 52 42 40 30 25 21 39 37 27 20 16 15 8 13 21 33 33 51 35 31 37 55 54 59 58 66 72
22 24 25 28 29 37 39 42 45 39 24 14 32 38 9 5 28 60 56 50 46 32 28 23 14 37 40 34 18 14 14 43 54 66 68 59 77 33 11 34 45 42 42 60 77
15 17 19 22 25 22 28 35 44 51 52 30 16 45 41 6 11 46 52 51 42 27 24 42 37 23 15 29 34 31 52 39 42 35 35 46 44 67 62 34 32 35 40 53 76
12 14 14 15 18 19 16 21 29 34 46 54 27 5 24 57 34 37 39 47 32 29 13 39 51 44 22 36 68 39 43 46 74 67 63 68 62 41 54 38 37 39 53 68 71
13 14 12 11 13 19 16 15 18 24 37 33 57 36 36 52 41 35 33 38 34 33 50 51 44 45 33 17 29 46 59 49 57 63 48 66 39 15 32 31 40 46 53 67 73
13 13 12 9 10 19 28 29 23 24 33 32 48 40 85 46 38 27 25 34 36 36 35 27 15 26 46 50 60 58 42 44 40 10 11 4 38 25 24 25 35 46 58 67 69
13 13 14 9 11 15 15 7 31 40 40 21 21 48 36 49 40 14 22 18 32 29 47 49 50 57 32 54 9 8 10 8 28 21 16 9 11 14 16 26 35 43 55 62 64
12 12 16 17 20 33 38 24 13 3 22 37 30 17 17 51 65 49 38 26 34 38 39 44 57 36 15 7 8 17 7 12 7 49 11 11 13 12 14 23 31 36 46 50 55
11 12 17 36 27 22 29 42 53 8 9 17 38 17 39 46 62 45 34 21 15 23 34 38 32 14 13 15 3 5 11 15 14 17 40 35 28 18 19 22 26 31 40 44 48
7 8 17 23 13 8 12 6 5 26 73 41 34 26 40 22 49 57 36 35 33 43 15 38 28 13 13 9 6 14 19 16 5 5 16 15 18 10 17 23 27 31 36 40 43
6 7 8 17 21 12 5 8 14 25 39 37 44 30 30 36 27 46 58 36 38 12 6 15 21 12 9 10 16 14 20 9 4 9 12 8 8 4 8 12 18 21 27 33 38
6 7 6 8 9 14 25 24 21 16 15 19 31 30 27 24 29 52 31 14 26 28 29 18 4 12 7 14 13 12 9 5 9 9 12 9 3 6 2 8 10 15 18 23 32
6 10 10 12 11 22 25 8 6 6 10 22 19 20 35 7 17 40 34 11 15 7 7 17 14 8 11 12 8 6 5 2 13 5 7 5 5 7 9 8 5 5 10 15 28
6 10 10 6 13 24 13 8 2 4 8 10 11 10 26 21 7 31 26 43 12 9 6 3 12 13 15 8 7 5 2 5 5 8 7 9 3 5 6 9 10 11 4 7 24
3 8 10 13 12 10 17 8 5 13 7 6 9 16 8 24 13 18 14 18 10 12 26 8 5 8 5 5 8 6 6 10 7 5 6 7 6 5 9 11 8 23 17 8 10
6 5 9 10 10 17 15 7 11 11 10 7 6 9 8 13 12 22 11 15 8 10 11 6 7 8 13 5 7 8 9 6 9 8 6 4 4 13 9 12 17 34 24 12 11
13 5 7 8 14 17 16 10 11 5 11 1 4 4 9 8 7 12 5 7 11 8 8 7 8 12 22 6 1 8 8 8 7 1 8 8 8 6 4 12 19 23 17 17 16
17 13 9 8 13 15 8 9 16 15 13 17 5 6 3 1 5 7 8 6 1 7 10 9 3 5 7 10 1 6 8 6 15 2 6 4 11 7 5 11 21 24 21 19 14
20 19 19 13 13 15 9 10 6 8 16 6 9 5 9 5 4 7 2 4 7 5 1 7 7 2 6 1 21 5 12 6 7 4 7 8 10 8 10 17 22 29 30 25 18
21 12 14 19 17 9 8 12 8 13 10 8 9 10 5 10 6 6 9 1 7 5 9 8 5 5 4 7 3 4 4 12 9 5 9 2 11 12 14 16 16 38 35 32 30
20 4 16 27 9 7 9 14 13 12 9 5 8 7 11 10 7 7 10 7 12 12 7 2 9 4 2 4 4 3 8 6 8 8 2 5 13 9 21 17 19 26 28 30 33
13 15 18 32 8 1 1 5 9 12 12 10 6 5 4 11 6 4 4 5 16 6 11 14 2 5 13 7 6 5 7 8 8 6 11 10 11 7 16 13 21 26 25 34 45
17 1 12 26 11 19 13 6 9 10 12 10 11 11 8 6 7 11 6 7 12 8 14 8 5 12 12 10 7 6 7 7 11 7 8 14 14 16 14 16 30 35 46 47 39
28 14 19 7 10 15 14 13 14 15 9 19 3 10 16 9 5 7 5 7 5 18 7 8 8 4 5 7 3 8 9 18 18 12 14 5 16 27 10 20 41 50 50 41 35
24 16 16 9 22 20 6 17 25 12 21 13 11 22 14 16 16 21 17 11 11 11 7 4 4 4 7 6 5 14 22 28 28 21 29 24 38 65 73 53 45 41 35 35 38
49 29 17 17 15 11 12 17 23 36 19 8 29 16 12 12 15 16 15 27 32 17 7 9 11 5 10 8 11 15 19 34 16 13 24 18 29 11 18 31 38 39 39 46 54
Wind_Direction_850mb
66 72 72 69 61 58 62 66 68 64 53 43 21 15 82 54 43 49 36 10 356 356 8 26 18 59 130 75 71 69 87 128 130 127 113 65 79 63 67 65 61 67 59 45 45
69 74 71 72 69 61 63 57 54 51 44 47 29 37 136 59 46 44 27 21 15 13 15 36 52 73 72 45 46 38 82 57 94 111 94 65 69 84 62 54 52 52 55 57 56
73 71 69 74 75 68 66 59 54 46 36 41 45 40 75 141 28 14 20 17 15 24 44 38 83 67 55 58 26 19 90 100 92 107 98 83 56 58 49 49 38 37 37 48 55
67 69 65 69 69 75 68 63 49 50 46 44 74 62 53 113 62 10 19 17 16 17 62 69 89 73 69 60 63 90 68 63 80 84 85 73 83 63 60 61 49 47 52 55 55
61 67 54 57 63 73 83 52 55 55 48 48 53 43 35 67 25 14 13 16 27 41 85 85 71 68 80 86 72 68 89 76 84 79 81 82 72 69 54 54 62 53 53 58 59
70 61 50 50 69 80 50 24 72 58 43 55 57 66 74 63 17 9 7 21 45 61 83 89 82 91 65 71 59 106 83 70 76 85 78 74 51 73 43 54 55 59 58 56 54
83 64 38 46 88 95 68 74 61 70 53 65 56 51 52 37 16 10 9 28 47 61 75 71 117 109 96 97 119 114 100 79 25 46 142 85 40 47 54 55 59 57 61 64 60
94 83 36 58 114 116 72 99 73 74 48 43 61 50 67 32 29 57 53 56 59 71 83 82 95 88 79 125 88 44 61 72 23 24 42 75 84 42 69 71 58 58 61 62 58
98 110 56 86 104 95 63 51 229 327 62 55 70 70 42 24 33 34 40 88 79 77 92 94 92 61 67 46 48 17 73 27 41 13 114 104 124 126 68 71 66 60 62 59 57
99 133 124 119 105 62 57 69 59 111 90 48 52 67 21 11 24 33 47 81 93 87 83 70 58 62 29 33 91 53 97 52 54 7 77 94 114 107 90 84 76 70 66 61 55
128 136 179 198 233 328 355 347 357 55 66 68 64 76 31 33 36 39 58 78 79 69 49 32 60 31 319 335 79 97 89 93 49 306 60 73 100 95 94 87 81 76 70 63 54
131 132 182 210 232 254 2 82 111 122 79 64 60 52 35 31 40 39 58 64 51 50 18 53 53 331 303 25 74 70 90 71 106 38 86 122 93 106 90 74 80 76 64 59 53
143 141 116 139 174 163 127 109 105 109 77 37 38 32 20 32 39 13 29 64 64 57 55 82 297 349 66 40 57 33 85 127 123 103 66 131 151 190 176 128 92 79 69 59 44
116 164 121 110 136 157 159 139 90 131 78 338 2 23 9 41 49 23 27 53 49 103 90 75 2 33 51 70 355 72 353 132 116 86 143 16 261 250 194 199 183 114 79 58 38
114 133 167 175 147 149 176 185 115 110 52 327 3 12 30 76 347 19 39 69 76 21 116 58 7 23 47 7 333 90 133 95 90 87 90 345 65 261 140 231 223 210 149 64 33
127 145 126 138 165 172 167 164 110 43 260 5 343 353 40 32 26 359 41 62 78 61 56 99 46 48 331 313 10 124 94 49 55 77 36 256 121 248 192 204 185 206 204 197 20
186 152 184 167 164 154 163 152 37 113 344 280 20 17 81 13 20 25 40 17 44 76 22 26 24 353 25 6 46 60 59 358 6 15 208 344 51 245 229 216 197 192 204 216 284
214 195 155 162 159 160 154 57 82 239 212 169 123 69 80 356 32 10 77 46 37 30 81 101 356 12 348 59 146 48 130 140 195 285 270 333 242 250 247 195 184 198 208 234 284
221 212 207 182 174 172 151 64 198 194 152 150 90 102 23 107 122 70 38 139 12 26 117 109 82 342 57 37 36 266 52 155 104 70 38 270 283 277 168 208 207 214 229 248 286
227 219 219 203 188 176 85 215 152 151 130 157 155 146 169 220 137 61 186 212 137 50 36 224 80 32 289 191 35 90 141 64 12 60 313 292 282 242 214 226 227 234 239 249 276
218 205 207 198 185 179 159 204 165 177 154 150 159 129 160 157 126 170 171 269 189 114 101 136 80 265 9 24 163 19 29 50 107 104 160 269 272 209 209 211 217 234 242 255 258
205 223 209 182 147 46 146 167 141 159 169 131 111 109 150 160 137 158 184 182 166 152 128 164 138 126 155 171 256 185 188 137 113 258 80 127 272 217 214 218 228 234 236 264 271
202 198 207 189 150 231 93 90 148 144 179 165 129 131 134 154 90 183 161 128 152 139 167 184 6 28 345 5 358 207 182 115 101 78 205 144 264 241 251 238 225 241 253 289 297
185 114 173 199 208 144 146 193 151 181 159 154 127 112 104 102 42 173 148 169 166 130 130 138 105 161 192 202 130 178 196 169 129 128 185 230 285 255 236 230 247 252 278 293 298
200 224 181 207 223 157 149 132 139 175 199 175 106 206 160 122 78 179 203 127 147 162 111 132 179 126 265 260 301 230 184 188 203 181 179 246 223 258 234 227 268 279 287 288 293
189 184 185 148 147 126 178 212 166 171 153 221 209 176 167 154 182 189 142 190 183 162 139 90 215 96 316 350 306 278 223 220 219 229 255 255 276 270 274 277 280 281 276 282 290
210 215 198 157 150 122 207 182 193 145 200 179 174 126 164 191 136 132 147 147 147 139 134 120 133 95 268 343 330 295 231 198 187 211 206 199 233 250 270 266 280 288 282 285 291